Precipitable_Water
0.47 0.40 0.37 0.46 0.48 0.53 0.64 0.73 0.97 0.88 0.99 0.85 0.71 0.91 0.94 1.08 1.01 0.81 0.78 0.97 1.11 1.16 1.41 1.48 1.59 1.65 1.69 1.68 1.57 1.50 1.63 1.72 1.57 1.48 1.48 1.54 1.69 1.56 1.61 1.60 1.50 1.50 1.53 1.46
0.39 0.35 0.39 0.47 0.47 0.52 0.66 0.75 0.80 0.93 0.88 0.79 0.60 0.79 1.04 1.11 0.98 0.85 0.75 0.86 1.06 1.14 1.28 1.40 1.51 1.60 1.57 1.62 1.63 1.48 1.55 1.66 1.54 1.59 1.55 1.63 1.67 1.68 1.60 1.58 1.48 1.51 1.53 1.50
0.35 0.36 0.40 0.40 0.42 0.42 0.51 0.66 0.70 0.70 0.88 0.80 0.64 0.52 1.03 1.11 1.07 1.06 0.82 0.91 0.99 1.14 1.21 1.33 1.43 1.53 1.53 1.55 1.59 1.46 1.55 1.56 1.52 1.57 1.56 1.59 1.61 1.53 1.38 1.32 1.36 1.53 1.53 1.53
0.31 0.39 0.37 0.37 0.37 0.40 0.39 0.64 0.64 0.71 0.61 0.50 0.73 0.55 0.74 1.05 1.03 0.99 0.90 0.87 0.93 1.02 1.23 1.30 1.37 1.48 1.52 1.53 1.61 1.54 1.48 1.50 1.46 1.58 1.50 1.41 1.34 1.22 1.33 1.36 1.55 1.55 1.52 1.55
0.24 0.29 0.32 0.33 0.36 0.38 0.37 0.52 0.58 0.51 0.46 0.44 0.53 0.53 0.69 0.78 0.89 0.88 0.85 0.89 0.91 0.99 1.16 1.27 1.34 1.44 1.48 1.52 1.54 1.56 1.46 1.44 1.42 1.45 1.57 1.41 1.35 1.41 1.43 1.40 1.47 1.43 1.57 1.66
0.22 0.32 0.31 0.31 0.37 0.37 0.40 0.43 0.52 0.52 0.57 0.38 0.45 0.48 0.52 0.71 0.80 0.94 0.87 0.85 0.90 0.95 1.04 1.25 1.35 1.41 1.44 1.47 1.49 1.51 1.45 1.35 1.38 1.37 1.42 1.43 1.32 1.34 1.39 1.35 1.43 1.44 1.59 1.66
0.21 0.24 0.31 0.30 0.28 0.35 0.37 0.36 0.36 0.37 0.45 0.33 0.44 0.45 0.55 0.78 1.08 1.21 0.99 0.74 0.81 0.91 0.95 1.15 1.21 1.30 1.35 1.38 1.37 1.40 1.43 1.30 1.30 1.33 1.26 1.29 1.31 1.33 1.37 1.48 1.38 1.37 1.51 1.56
0.17 0.19 0.27 0.28 0.26 0.28 0.32 0.32 0.34 0.31 0.36 0.34 0.54 0.47 0.62 0.84 0.86 1.19 1.17 0.96 0.79 0.81 0.86 1.01 1.17 1.24 1.31 1.33 1.36 1.34 1.33 1.27 1.28 1.24 1.22 1.26 1.24 1.31 1.32 1.40 1.38 1.40 1.46 1.61
0.19 0.17 0.29 0.30 0.27 0.27 0.29 0.29 0.39 0.40 0.44 0.43 0.60 0.66 0.84 0.90 0.79 0.79 0.96 0.98 0.80 0.76 0.77 0.89 1.07 1.20 1.26 1.28 1.31 1.31 1.28 1.25 1.23 1.22 1.23 1.21 1.27 1.28 1.25 1.31 1.39 1.37 1.43 1.50
0.21 0.19 0.22 0.28 0.29 0.27 0.29 0.35 0.30 0.37 0.32 0.36 0.55 0.62 0.60 0.82 0.78 0.67 0.70 0.91 0.90 0.84 0.75 0.81 1.00 1.14 1.21 1.28 1.31 1.31 1.29 1.19 1.21 1.27 1.30 1.30 1.29 1.31 1.29 1.40 1.39 1.42 1.49 1.57
0.22 0.21 0.23 0.25 0.25 0.23 0.27 0.29 0.31 0.35 0.38 0.37 0.46 0.62 0.66 0.76 0.83 0.65 0.71 0.90 0.90 0.87 0.74 0.73 0.92 1.12 1.18 1.25 1.25 1.21 1.21 1.22 1.22 1.28 1.31 1.28 1.29 1.29 1.29 1.28 1.36 1.36 1.43 1.50
0.31 0.22 0.21 0.26 0.27 0.26 0.29 0.30 0.30 0.28 0.33 0.40 0.44 0.51 0.74 0.80 0.84 0.79 0.72 0.86 0.92 0.93 0.75 0.72 0.83 1.03 1.10 1.17 1.19 1.17 1.19 1.20 1.20 1.24 1.27 1.21 1.25 1.26 1.25 1.26 1.28 1.36 1.42 1.55
0.39 0.26 0.20 0.24 0.27 0.23 0.23 0.29 0.31 0.33 0.43 0.36 0.40 0.51 0.85 0.89 0.95 0.81 0.78 0.86 0.89 0.90 0.76 0.73 0.79 0.92 0.97 1.07 1.14 1.16 1.16 1.15 1.18 1.20 1.21 1.19 1.20 1.19 1.20 1.26 1.28 1.39 1.47 1.56
0.37 0.32 0.29 0.21 0.25 0.23 0.21 0.25 0.29 0.32 0.32 0.38 0.43 0.57 0.74 0.81 0.90 0.83 0.91 0.94 0.90 0.83 0.76 0.73 0.74 0.86 0.91 0.96 1.04 1.09 1.09 1.12 1.13 1.13 1.13 1.12 1.10 1.14 1.19 1.26 1.32 1.40 1.51 1.55
0.37 0.30 0.32 0.29 0.30 0.31 0.24 0.24 0.26 0.28 0.31 0.33 0.44 0.48 0.64 0.78 1.09 1.01 0.99 0.93 0.78 0.74 0.76 0.72 0.72 0.81 0.84 0.88 0.97 1.04 1.06 1.04 1.08 1.04 1.04 1.01 1.09 1.17 1.21 1.26 1.32 1.45 1.46 1.55
0.42 0.33 0.35 0.29 0.33 0.32 0.29 0.24 0.25 0.27 0.30 0.34 0.46 0.60 0.76 0.80 0.94 1.01 0.96 0.74 0.67 0.65 0.67 0.76 0.75 0.79 0.77 0.78 0.86 0.93 0.97 0.96 1.01 0.97 0.94 1.02 1.07 1.14 1.18 1.25 1.30 1.42 1.46 1.41
0.38 0.37 0.35 0.25 0.33 0.33 0.28 0.28 0.24 0.25 0.30 0.31 0.37 0.66 0.77 0.81 1.01 1.02 0.85 0.72 0.65 0.62 0.63 0.70 0.66 0.71 0.73 0.73 0.79 0.82 0.88 0.92 0.92 0.91 0.94 0.99 1.06 1.09 1.16 1.22 1.33 1.36 1.42 1.47
0.36 0.35 0.39 0.31 0.34 0.25 0.30 0.33 0.30 0.25 0.27 0.31 0.36 0.57 0.74 0.81 0.98 1.10 0.86 0.75 0.74 0.62 0.62 0.67 0.70 0.70 0.72 0.76 0.78 0.85 0.86 0.89 0.85 0.87 0.91 0.98 1.04 1.09 1.18 1.21 1.25 1.34 1.42 1.53
0.35 0.33 0.31 0.32 0.30 0.32 0.31 0.31 0.30 0.26 0.24 0.29 0.35 0.44 0.71 0.98 0.98 0.92 1.02 0.88 0.89 0.77 0.68 0.70 0.74 0.76 0.79 0.78 0.81 0.83 0.86 0.82 0.83 0.79 0.86 0.97 1.04 1.11 1.18 1.16 1.18 1.30 1.44 1.57
0.29 0.35 0.33 0.34 0.30 0.23 0.30 0.34 0.37 0.33 0.26 0.31 0.33 0.42 0.54 0.74 0.68 0.95 1.12 0.99 0.86 0.84 0.85 0.83 0.84 0.84 0.86 0.83 0.90 0.89 0.89 0.94 0.78 0.81 0.86 1.02 1.10 1.14 1.14 1.18 1.19 1.34 1.53 1.53
0.24 0.30 0.28 0.33 0.33 0.36 0.37 0.43 0.41 0.29 0.38 0.64 0.60 0.54 0.49 0.66 0.82 0.92 0.96 0.97 0.96 0.96 0.93 0.94 0.91 0.86 0.87 0.96 0.96 0.90 0.91 0.91 0.95 1.00 1.03 1.08 1.16 1.19 1.20 1.22 1.33 1.43 1.50 1.49
0.24 0.27 0.27 0.31 0.32 0.32 0.68 0.63 0.51 0.79 0.85 0.80 0.79 0.75 0.68 0.72 0.84 0.99 0.97 0.93 0.94 0.87 0.88 0.96 1.02 0.92 1.01 1.10 1.07 1.00 0.95 0.91 1.05 1.11 1.12 1.21 1.27 1.31 1.32 1.31 1.41 1.49 1.45 1.40
0.21 0.28 0.31 0.32 0.35 0.75 0.82 0.84 0.92 0.96 0.85 0.78 0.78 0.79 0.77 0.74 0.82 0.91 0.97 1.01 0.95 0.96 0.98 0.94 0.88 0.93 1.15 1.18 1.13 1.04 1.00 1.15 1.14 1.12 1.18 1.24 1.33 1.41 1.41 1.41 1.40 1.37 1.41 1.37
0.39 0.38 0.34 0.39 0.38 0.53 0.80 0.88 0.82 0.87 0.86 0.83 0.89 0.90 0.82 0.73 0.79 0.85 0.95 1.02 0.99 0.95 0.98 0.96 1.05 0.99 0.93 1.04 1.20 1.11 1.15 1.29 1.32 1.28 1.31 1.32 1.35 1.41 1.43 1.55 1.47 1.35 1.32 1.32
0.69 0.64 0.53 0.44 0.67 0.78 0.79 0.82 0.78 0.78 0.89 0.96 0.95 0.94 0.91 0.91 0.86 0.80 0.82 0.90 0.92 0.93 0.89 0.91 0.91 0.91 0.96 1.05 1.03 1.10 1.30 1.36 1.30 1.36 1.42 1.47 1.49 1.47 1.43 1.51 1.43 1.37 1.39 1.40
0.81 0.77 0.64 0.62 0.81 0.79 0.77 0.78 0.81 0.81 0.92 0.93 0.95 0.95 1.03 1.11 0.96 0.82 0.82 0.82 0.82 0.85 0.90 0.87 0.90 0.89 1.01 1.07 1.06 1.11 1.18 1.26 1.29 1.34 1.41 1.50 1.55 1.56 1.53 1.47 1.35 1.48 1.50 1.57
Wind_Speed
26 25 25 24 21 19 11 11 13 16 14 14 8 12 13 11 9 9 11 15 17 19 21 21 20 21 20 20 19 19 16 15 13 12 10 8 8 7 7 7 8 10 12 13
29 31 28 25 23 20 14 9 19 11 6 13 8 11 15 14 12 11 12 15 18 20 23 23 22 22 22 22 21 20 18 15 14 12 10 8 7 7 8 9 8 9 11 12
33 30 28 28 27 25 23 15 19 18 13 12 10 11 17 16 14 12 13 14 17 21 24 23 24 24 23 23 22 21 19 17 15 12 11 9 8 8 6 6 7 9 10 11
34 32 31 31 30 27 26 25 21 14 12 13 13 10 10 16 17 16 14 15 17 21 23 23 25 25 25 24 23 22 20 18 16 14 12 11 9 7 6 6 8 7 8 9
33 35 34 33 31 28 26 23 20 18 15 16 15 13 12 20 19 18 18 18 18 20 23 24 26 26 26 25 24 23 22 19 17 16 13 13 11 8 8 7 6 4 5 7
36 30 35 33 31 29 26 26 24 20 17 18 19 18 15 16 18 18 18 19 19 20 22 25 25 27 27 26 25 24 23 21 19 18 16 13 12 10 7 6 5 3 3 5
33 36 33 35 33 32 28 27 21 20 19 18 18 18 8 13 15 12 19 20 20 20 22 25 25 28 27 27 26 25 24 22 21 19 17 16 13 11 8 6 4 2 3 5
32 32 36 30 38 32 32 30 25 22 19 17 7 13 12 12 8 26 22 19 20 21 22 25 27 28 28 28 27 26 24 23 22 21 19 17 15 12 10 7 4 1 2 5
31 36 28 37 32 35 33 32 30 28 23 14 12 13 12 14 12 12 20 21 21 21 22 25 27 29 29 28 27 26 25 24 23 22 20 19 17 14 11 8 5 3 4 6
35 29 34 31 35 34 37 28 29 28 27 20 12 12 19 14 12 14 15 22 21 21 22 24 26 29 29 28 28 27 25 24 23 22 21 20 18 16 13 9 6 4 4 5
36 35 30 33 37 37 33 33 31 30 26 22 17 14 17 20 17 20 17 22 23 22 23 24 25 28 29 28 27 27 25 25 23 23 22 20 19 17 14 12 8 6 6 7
28 36 33 33 35 37 36 35 34 27 28 24 18 15 18 18 20 21 17 22 22 23 24 25 26 28 28 28 27 27 26 25 24 23 22 21 19 17 15 13 10 8 7 8
21 29 32 32 29 37 40 36 35 32 26 27 21 12 14 23 16 15 19 22 22 23 25 27 27 28 28 27 27 26 25 25 24 24 23 22 20 18 16 14 11 9 8 9
25 29 30 32 30 30 35 38 36 35 28 25 25 17 17 14 11 12 21 19 21 22 26 28 27 27 27 27 26 26 25 25 25 24 24 23 21 19 17 15 13 11 9 10
28 31 31 32 31 29 35 34 38 37 33 29 24 23 20 17 18 12 19 19 21 23 27 28 27 27 27 26 26 26 25 25 25 25 24 24 22 20 18 16 14 12 11 11
26 29 31 34 31 31 29 37 37 36 35 32 28 15 16 13 11 11 18 20 21 24 27 27 27 27 26 26 26 26 25 25 25 25 25 24 23 21 19 17 16 13 13 12
25 25 28 33 30 29 31 32 36 36 36 33 31 21 17 13 17 17 19 20 23 24 26 27 27 26 26 26 25 25 25 25 25 25 25 24 24 22 21 19 17 15 14 13
28 28 28 30 28 33 28 28 28 34 36 33 32 24 21 16 26 16 19 20 22 24 25 25 25 25 26 25 25 24 25 24 25 25 25 25 24 23 21 20 18 16 16 15
33 30 27 31 32 30 32 29 24 26 32 35 29 30 24 24 15 19 19 22 21 22 23 24 24 24 24 24 24 24 23 24 24 25 26 25 24 23 22 21 19 18 17 16
36 34 31 27 32 36 30 29 22 20 21 27 31 28 26 24 17 19 22 23 22 23 22 23 24 24 24 25 24 23 23 22 23 25 25 25 24 23 23 22 21 20 19 17
37 35 35 30 27 26 27 26 25 24 16 12 17 23 29 22 29 25 19 17 23 23 23 23 24 24 24 24 25 25 25 25 24 25 25 25 24 24 24 23 22 21 20 19
36 35 34 34 28 26 12 18 23 18 17 15 15 16 18 18 28 28 18 15 19 23 24 23 25 25 24 25 25 26 27 27 27 27 27 27 26 25 25 24 23 22 22 21
38 38 34 34 32 16 16 14 18 19 18 18 17 18 20 22 20 20 16 23 18 18 19 24 25 24 23 26 25 24 25 27 30 30 29 29 28 27 26 25 25 24 23 22
22 33 37 30 37 32 15 16 17 18 19 19 19 20 21 23 27 27 23 23 22 20 21 22 22 25 25 25 26 26 24 25 28 31 32 31 30 29 28 27 26 26 25 24
20 22 27 35 18 21 21 21 20 20 19 20 21 22 22 23 25 27 31 30 29 27 27 27 27 28 29 28 28 28 26 26 28 29 31 33 32 31 30 29 28 28 27 26
18 17 23 25 20 23 24 24 22 22 20 20 21 21 21 21 23 25 28 31 32 33 33 32 32 33 32 32 32 31 30 30 29 31 32 32 32 32 30 29 28 27 28 28
Wind_Direction
232 229 229 232 233 240 248 250 226 271 235 217 246 215 212 203 207 200 204 203 196 196 195 191 190 186 183 181 177 178 171 167 163 159 152 145 140 117 105 89 74 67 58 53
230 230 229 233 235 228 217 251 254 229 245 216 237 220 206 210 214 204 199 203 196 193 193 193 193 190 186 183 183 182 180 174 172 167 160 148 142 132 108 100 84 75 63 54
228 228 230 229 232 235 235 211 238 258 217 247 248 251 192 212 215 204 206 201 201 194 189 192 193 190 188 185 184 185 184 181 178 173 169 158 144 129 125 110 95 87 66 54
231 228 230 227 229 232 236 221 236 244 250 253 222 247 249 213 211 207 201 199 196 196 194 191 191 190 190 186 186 186 186 184 182 180 174 169 158 147 138 122 109 86 64 49
227 227 225 229 227 227 235 238 246 245 250 259 240 241 245 234 208 207 204 196 195 194 194 191 192 191 192 188 187 187 187 186 185 183 176 171 169 157 137 129 116 83 63 45
231 230 226 228 228 227 230 238 245 243 254 247 250 251 259 214 207 202 204 198 196 193 195 191 193 191 192 191 189 188 188 189 188 185 184 178 175 170 154 152 126 86 47 30
228 226 229 222 225 225 221 227 233 231 236 243 248 251 262 216 229 233 200 199 198 196 195 191 192 189 191 191 190 191 190 190 190 189 188 188 184 179 176 158 143 98 29 22
223 224 219 220 221 221 222 222 226 226 231 243 271 267 262 199 250 228 222 198 196 197 196 195 193 191 191 191 191 191 191 192 192 193 193 191 193 190 188 187 196 246 351 358
222 227 225 221 222 220 222 223 225 237 243 228 270 249 249 216 231 216 200 192 194 197 195 194 195 192 191 192 193 193 192 193 195 195 197 198 197 197 199 202 214 259 299 321
228 236 223 222 221 221 222 223 221 227 238 240 242 260 245 229 233 214 196 194 194 195 194 192 192 191 191 192 193 194 194 195 196 198 199 200 201 202 206 210 222 249 304 318
221 229 230 222 214 217 214 222 222 230 233 241 232 240 245 237 253 229 206 199 194 195 194 190 189 188 189 191 193 194 196 196 198 199 200 201 203 206 210 217 229 250 284 307
224 224 224 230 220 216 219 219 224 228 230 239 248 253 227 250 237 212 208 191 193 195 194 190 190 188 189 192 193 196 198 198 199 200 201 203 205 208 212 219 231 252 277 301
224 216 216 224 225 212 215 218 221 227 229 232 240 248 248 216 264 200 199 188 192 194 193 190 190 190 192 193 195 198 199 200 201 202 203 205 207 210 214 222 234 250 274 296
222 217 221 217 219 210 210 218 220 223 226 228 232 212 202 202 249 215 184 189 191 195 192 190 191 192 194 196 197 199 200 202 202 204 206 208 210 213 218 226 235 250 269 289
220 223 223 225 228 229 215 217 221 222 225 229 232 232 217 206 214 234 185 191 190 192 189 189 191 193 195 197 199 201 202 203 204 206 208 211 213 216 221 228 238 249 265 282
222 224 223 227 229 231 234 215 218 224 223 229 231 215 210 220 246 224 193 190 189 190 189 190 192 194 196 198 201 203 204 205 206 208 210 212 214 217 223 232 239 248 261 279
222 219 220 224 223 230 233 222 215 220 224 223 224 212 207 217 224 231 196 192 189 189 190 190 193 195 197 199 202 204 206 206 209 211 213 215 216 221 226 232 240 247 257 269
223 223 221 222 224 227 222 222 220 218 222 225 225 217 211 228 217 212 195 190 190 193 193 193 195 197 199 200 202 204 207 209 211 214 215 215 219 223 228 233 241 249 259 266
221 221 220 219 219 223 224 220 225 221 218 221 225 222 209 204 201 245 208 195 195 193 192 194 196 198 200 201 203 205 208 212 215 218 216 217 220 225 229 234 240 249 258 267
218 218 218 220 219 221 218 218 224 223 229 218 223 223 224 212 215 193 217 199 197 195 195 195 198 200 202 205 206 208 212 214 216 215 216 218 222 226 231 237 243 250 258 267
211 212 212 215 217 218 217 229 223 223 219 221 216 224 224 219 217 223 213 208 202 203 203 202 203 205 207 208 210 214 217 220 220 219 220 223 227 231 236 241 246 251 257 266
206 207 209 211 210 214 224 212 209 218 218 214 212 209 212 213 204 206 229 217 214 210 209 209 211 213 213 213 216 221 224 226 226 226 227 229 233 237 240 243 247 251 258 265
210 209 207 207 204 190 188 192 203 215 215 217 220 217 214 213 215 211 217 213 217 216 212 216 215 214 215 217 220 224 228 230 230 230 232 234 236 238 242 244 247 252 257 264
203 207 209 208 211 220 211 207 213 220 222 224 224 223 222 222 226 226 223 225 225 223 220 219 220 219 221 225 225 230 234 235 235 235 236 236 237 239 242 245 248 252 256 263
204 208 206 209 209 211 213 217 221 223 225 226 228 229 230 232 233 234 234 235 236 235 233 233 232 231 230 231 233 236 238 240 239 238 236 236 238 239 241 245 249 253 256 261
197 191 195 200 212 216 220 222 226 225 230 230 231 232 234 236 238 238 239 237 238 239 239 239 241 239 237 236 238 240 242 242 243 241 238 238 238 238 242 245 251 255 257 260